Home   Weather   Traralgon   Past weeks

Flag for Australia Past Weather in Traralgon, Victoria, Australia — Yesterday and Last 2 Weeks

Now
91 °F

Hot.


Feels Like: 90 °F
Forecast: 56 / 74 °F
Wind: 8 mph from West

Location: Latrobe Valley Airport

Current Time: Jan 23, 2017 at 9:43:16 pm

Latest Report: Jan 23, 2017 at 7:00 pm


Visibility: N/A

Pressure: 29.55 "Hg

Humidity: 35%

Dew Point: 60 °F

Location of TraralgonLocation

Past Weather in Traralgon — Graph

°F

Traralgon Temperature Yesterday

Maximum temperature yesterday: 84 °F (at 4:00 pm)
Minimum temperature yesterday: 49 °F (at 4:00 am)
Average temperature yesterday: 66 °F

High & Low Weather Summary for the Past Weeks

 TemperatureHumidityPressure
High95 °F (Jan 17, 1:00 pm)95% (Jan 16, 7:00 am)30.06 "Hg (Jan 16, 7:00 am)
Low42 °F (Jan 19, 6:00 am)18% (Jan 17, 3:00 pm)29.29 "Hg (Jan 20, 9:00 am)
Average66 °F65%29.82 "Hg
* Reported Jan 8 7:00 pm — Jan 23 7:00 pm, Traralgon, Weather by CustomWeather, © 2017

Note: Actual official high and low records may vary slightly from our data, if they occured in-between our weather recording intervals... More about our weather records

Advertising

Traralgon Weather History for the Previous 24 Hours

Scroll right to see more
 ConditionsComfort  
Time TempWeatherWind HumidityBarometerVisibility
7:00 pm
Mon, Jan 23
91 °FHot.8 mph35%29.55 "HgN/A
6:00 pm93 °FOvercast.9 mph28%29.56 "HgN/A
4:00 pm95 °FExtremely hot.8 mph29%29.60 "HgN/A
3:00 pm95 °FOvercast.5 mph31%29.62 "HgN/A
1:00 pm92 °FHot.3 mph29%29.66 "HgN/A
12:00 pm86 °FWarm.5 mph43%29.69 "HgN/A
10:00 am72 °FMild.5 mph64%29.74 "HgN/A
9:00 am66 °FMild.1 mph74%29.76 "HgN/A
7:00 am60 °FCool.3 mph92%29.77 "HgN/A
6:00 am59 °FOvercast.3 mph93%29.77 "HgN/A
4:00 am58 °FCool.3 mph91%29.78 "HgN/A
3:00 am62 °FPassing clouds.5 mph88%29.81 "HgN/A
1:00 am61 °FCool.6 mph81%29.86 "HgN/A
12:00 am62 °FCool.6 mph79%29.90 "HgN/A
10:00 pm
Sun, Jan 22
65 °FMild.9 mph70%29.92 "HgN/A
9:00 pm68 °FMild.10 mph59%29.91 "HgN/A
Weather by CustomWeather, © 2017

See weather overviewHow to use our weather pages